星链-31441 (STARLINK-31441 )

导读 | 星芒AI

STARLINK-31441 是 SpaceX 星链计划中的一颗低轨通信卫星,属于星链第三代组网卫星。该卫星于2023年发射,运行在约550公里高度的近地轨道,旨在为全球用户提供高速互联网服务。作为星链星座的重要组成部分,它具备先进的通信技术和自主避障能力,有助于提升网络覆盖和连接稳定性。星链项目计划部署数万颗卫星,以构建全球宽带网络,推动偏远地区互联网普及。

基本信息
目录编号:
60091
目录名称:
STARLINK-31441
国际标识:
2024-117A
轨道中心:
EARTH
卫星名称:
星链-31441
卫星全名:
星链-31441 (STARLINK-31441 )
卫星状态:
在轨 (已飞行545 天)
发射日期:
2024-06-23 UTC
国别 :
美国 (US)
星等 :
--
轨道信息
数据来源 国际轨道数据 AOE轨道数据
星历时间 2025-12-19T18:58:22+0800
13小时前
查看轨道信息
2025-12-13T19:00:00+0800
6天前
查看轨道信息
半长轴 6853.39km 6853.283km
偏心率 0.0001006 0.0001565
轨道倾角 53.161° 53.163°
近地点辐角 75.291° 76.215°
升交点赤经 49.717° 77.586°
平近点角 284.820° 339.469°
近地点 474.563km 474.075km
远地点 475.943km 476.221km
周期 94.106分钟 94.104分钟
每日圈数 15.301874 15.302233
详细信息
固有亮度:
5
最大亮度:
1.5
卫星平台:
Starlink v2.0 mini
覆盖范围:
全球
运营商:
太空探索技术公司
运营商所在国:
美国
制造商(研发单位):
太空探索技术公司
制造商所在国:
美国
使用方式:
暂无
卫星简介
星链(Starlink)计划是由太空探索技术公司(SpaceX)提出的一个巨型低轨卫星互联网星座项目,计划在2019年至2024年间在太空搭建由约1.2万颗卫星组成的“星链”网络,其中1584颗将部署在地球上空550千米处的近地轨道,并从2020年开始工作。该卫星仍在工作。
2D轨道图
3D轨道图
轨道高度分析图
轨道倾角分析图
轨道综合分析图
查看轨道综合分析图